Lumberton, NC

12:40 AM EDT on October 19, 2017 (GMT -0400)
Lumberton Municipal

Weather History for KLBT - November, 2014

Change the Weather History Date:

Wednesday, November 19, 2014

  Actual Average Record
Temperature  
Mean Temperature 31 °F 53 °F  
Max Temperature 47 °F 66 °F 77 °F (2016)
Min Temperature 15 °F 40 °F 15 °F (2014)
Degree Days  
Heating Degree Days 34 12  
Month to date heating degree days 278 184  
Since 1 July heating degree days 366 316  
Cooling Degree Days 0 0  
Month to date cooling degree days 6 10  
Year to date cooling degree days 2058 1904  
Moisture  
Dew Point 15 °F    
Average Humidity 56    
Maximum Humidity 91    
Minimum Humidity 20    
Precipitation  
Precipitation 0.00 in 0.10 in 1.43 in (2015)
Month to date precipitation 0.21 1.75  
Year to date precipitation 36.99 39.51  
Sea Level Pressure  
Sea Level Pressure 30.35 in    
Wind  
Wind Speed 3 mph (South)    
Max Wind Speed 12 mph    
Max Gust Speed 14 mph    
Visibility 10 miles    
Events      
T = Trace of Precipitation, MM = Missing Value Source: NWS Daily Summary

Daily Weather History Graph

Daily Weather History Graph

Search for Another Location

Airport or City:

Trip Planner

Search our weather history database for the weather conditions in past years. The results will help you decide how hot, cold, wet, or windy it might be!

Date:

Astronomy

Nov. 19, 2014 Rise Set
Actual Time 6:53 AM EST 5:09 PM EST
Civil Twilight 6:26 AM EST 5:36 PM EST
Nautical Twilight 5:56 AM EST 6:06 PM EST
Astronomical Twilight 5:26 AM EST 6:36 PM EST
Moon 3:55 AM EST 3:29 PM EST
Length of Visible Light 11h 09m
Length of Day
10h 15m
Waning Crescent, 9% of the Moon is Illuminated
Nov 19
Waning Crescent
Nov 22
New
Nov 29
First Quarter
Dec 6
Full
Dec 14
Last Quarter

Hourly Weather History & Observations

Time (EST) Temp. Windchill Dew Point Humidity Pressure Visibility Wind Dir Wind Speed Gust Speed Precip Events Conditions
12:54 AM 21.0 °F - 17.1 °F 85% 30.35 in 10.0 mi Calm Calm - N/A   Clear
1:54 AM 19.0 °F - 15.1 °F 85% 30.35 in 10.0 mi Calm Calm - N/A   Clear
2:54 AM 19.0 °F - 16.0 °F 88% 30.36 in 10.0 mi Calm Calm - N/A   Clear
3:54 AM 19.0 °F - 16.0 °F 88% 30.37 in 10.0 mi Calm Calm - N/A   Clear
4:54 AM 18.0 °F - 14.0 °F 84% 30.37 in 10.0 mi Calm Calm - N/A   Clear
5:54 AM 18.0 °F - 14.0 °F 84% 30.39 in 10.0 mi Calm Calm - N/A   Clear
6:54 AM 16.0 °F - 12.9 °F 88% 30.42 in 10.0 mi Calm Calm - N/A   Clear
7:54 AM 21.9 °F - 18.0 °F 85% 30.44 in 10.0 mi Calm Calm - N/A   Clear
8:54 AM 30.9 °F 27.5 °F 19.0 °F 61% 30.46 in 10.0 mi ESE 3.5 mph - N/A   Clear
9:54 AM 36.0 °F 33.3 °F 10.0 °F 34% 30.46 in 10.0 mi East 3.5 mph - N/A   Clear
10:54 AM 39.0 °F - 7.0 °F 27% 30.44 in 10.0 mi Calm Calm - N/A   Clear
11:54 AM 42.1 °F 39.2 °F 7.0 °F 24% 30.40 in 10.0 mi Variable 4.6 mph - N/A   Clear
12:54 PM 44.1 °F 39.5 °F 7.0 °F 22% 30.37 in 10.0 mi SW 8.1 mph - N/A   Clear
1:54 PM 45.0 °F 41.8 °F 7.0 °F 21% 30.34 in 10.0 mi WSW 5.8 mph - N/A   Clear
2:54 PM 46.9 °F - 9.0 °F 21% 30.32 in 10.0 mi Variable 6.9 mph - N/A   Clear
3:54 PM 46.9 °F - 9.0 °F 21% 30.31 in 10.0 mi SW 9.2 mph - N/A   Clear
4:54 PM 44.1 °F 41.5 °F 10.9 °F 26% 30.31 in 10.0 mi SSW 4.6 mph - N/A   Clear
5:54 PM 36.0 °F - 15.1 °F 43% 30.30 in 10.0 mi Calm Calm - N/A   Clear
6:54 PM 34.0 °F 29.8 °F 18.0 °F 52% 30.30 in 10.0 mi South 4.6 mph - N/A   Clear
7:54 PM 36.0 °F 33.3 °F 19.0 °F 50% 30.29 in 10.0 mi SSE 3.5 mph - N/A   Clear
8:54 PM 36.0 °F 32.1 °F 23.0 °F 59% 30.29 in 5.0 mi South 4.6 mph - N/A   Haze
9:54 PM 30.9 °F 27.5 °F 24.1 °F 76% 30.29 in 10.0 mi SSW 3.5 mph - N/A   Clear
10:54 PM 30.9 °F 25.2 °F 24.1 °F 76% 30.28 in 10.0 mi South 5.8 mph - N/A   Clear
11:54 PM 35.1 °F 30.1 °F 28.0 °F 76% 30.27 in 10.0 mi SSW 5.8 mph - N/A   Clear